Probability
0 0 0 0 0 0 0 0 0 0 0 0 0 0 0 0 0 0 0 1 2 4 6 8 9 7 6 6 4 2 1 0 0 0 0 0 0 0 0 0 0 0 0 0 0 0 0 1 3
0 0 0 0 0 0 0 0 0 0 0 0 0 0 0 0 0 0 0 0 1 3 6 8 8 7 6 6 4 3 1 0 0 0 0 0 0 0 0 0 0 0 0 0 0 0 1 2 3
0 0 0 0 0 0 0 0 0 0 0 0 0 0 0 0 0 0 0 0 1 2 4 8 9 7 6 6 4 3 2 1 0 0 0 0 0 0 0 0 1 0 0 0 0 0 1 2 2
0 0 0 0 0 0 0 0 0 0 0 0 0 0 0 0 0 0 0 0 0 1 3 7 8 7 7 6 5 4 3 2 2 1 0 0 0 0 0 0 0 0 0 0 0 0 1 1 1
0 0 0 0 0 0 0 0 0 0 0 0 0 0 0 0 0 0 0 0 0 1 3 6 7 7 7 6 6 5 3 3 3 2 1 1 1 0 0 0 0 0 0 0 1 1 1 1 0
0 0 0 0 0 0 0 0 0 0 0 0 0 0 0 0 0 0 0 0 1 3 5 5 6 7 6 6 5 4 3 3 3 3 3 2 1 0 0 0 0 0 0 0 0 1 1 1 0
0 0 0 0 0 0 0 0 0 0 0 0 0 0 0 0 1 1 1 1 3 5 6 5 6 5 4 4 4 3 3 3 3 3 3 2 1 0 0 0 0 0 0 0 0 0 0 0 0
0 0 0 0 0 0 0 0 0 0 0 0 0 0 0 1 2 2 2 2 4 5 5 5 5 4 3 3 3 3 3 3 3 3 2 1 0 0 0 0 0 0 0 0 0 0 0 0 0
0 0 0 0 0 0 0 0 0 0 0 0 0 0 1 2 3 3 3 3 3 3 3 2 2 2 1 2 3 3 3 3 3 2 1 0 0 0 0 0 0 0 0 0 0 0 0 0 0
0 0 0 0 0 0 0 0 0 0 0 0 0 0 1 2 2 2 2 2 1 1 1 0 1 2 1 1 3 3 3 3 3 2 1 0 0 0 0 0 0 0 0 0 0 0 0 0 0
0 0 0 0 0 0 0 0 0 0 0 0 0 0 1 1 1 1 1 1 0 0 0 0 1 2 1 1 2 3 3 3 3 3 2 1 0 0 0 0 0 0 0 0 0 0 0 0 0
0 0 0 0 0 0 0 0 0 0 0 0 0 0 1 1 0 0 0 0 0 0 0 0 0 1 1 0 1 2 3 3 3 3 3 1 0 0 0 0 0 0 0 0 0 0 0 0 0
0 0 0 0 0 0 0 0 0 0 0 0 0 0 1 1 1 0 0 0 0 0 0 0 0 0 0 0 0 1 3 3 3 3 3 2 1 0 0 0 0 0 0 0 0 0 0 0 0
0 0 0 0 0 0 0 0 0 0 0 0 0 0 1 1 2 1 1 1 1 1 0 0 0 0 0 0 0 1 2 3 3 3 3 3 2 1 1 0 0 0 0 0 0 0 0 0 0
0 0 0 0 0 0 0 0 0 0 0 0 0 0 0 1 2 2 1 1 1 1 0 0 0 0 0 0 0 0 1 2 3 3 3 3 3 3 2 1 0 0 0 0 0 0 0 0 0
0 0 0 0 0 0 0 0 0 0 0 0 0 0 0 1 1 1 0 0 1 0 0 0 0 0 0 0 0 0 0 1 2 3 3 3 3 3 3 2 1 0 0 0 0 0 0 0 0
0 0 0 0 0 0 0 0 0 0 0 0 0 0 0 0 0 0 0 0 1 0 0 0 0 0 0 0 0 0 0 0 1 2 3 3 3 3 3 2 1 1 2 1 0 0 0 0 0
0 0 0 0 0 0 0 0 0 0 0 0 0 0 0 0 0 0 0 0 0 0 0 0 0 0 0 0 0 0 0 0 0 1 2 3 3 3 3 2 1 2 3 2 1 0 0 0 0
0 0 0 0 0 0 0 0 0 0 0 0 0 0 0 0 0 0 0 0 0 0 0 0 0 0 0 0 0 0 0 0 0 0 1 3 3 3 3 2 1 1 3 3 2 1 0 0 0
0 0 0 0 0 0 0 0 0 0 0 0 0 0 0 0 0 0 0 1 1 1 0 0 0 0 0 0 0 0 0 0 0 0 1 2 3 2 2 2 1 1 2 3 3 1 0 0 0
0 0 0 0 0 0 0 0 0 0 0 0 0 0 0 0 0 0 0 1 1 1 0 0 0 0 0 0 0 0 0 0 0 0 1 2 2 1 1 1 0 0 1 2 2 2 1 0 0
0 0 0 0 0 0 0 0 0 0 0 0 0 0 0 0 0 0 0 0 1 0 0 0 0 0 0 0 0 0 0 0 0 0 1 2 2 1 0 0 0 0 0 1 1 2 2 1 0
0 0 0 0 0 0 0 0 0 0 0 0 0 0 0 0 0 0 0 1 1 1 0 0 0 0 0 0 0 0 0 0 0 1 2 3 2 1 0 0 0 0 0 0 0 1 1 1 0
0 0 0 0 0 0 0 0 0 0 0 0 0 0 0 0 0 0 0 1 2 1 0 0 0 0 0 0 0 0 0 0 0 1 2 3 3 1 0 0 0 0 0 0 0 0 0 0 0
0 0 0 0 0 0 0 0 0 0 0 0 0 0 0 0 0 0 0 1 2 2 1 0 0 0 0 0 0 0 0 0 0 0 1 3 3 2 1 0 0 0 0 0 0 0 0 0 0
0 0 0 0 0 0 0 0 0 0 0 0 0 0 0 0 0 0 0 0 2 2 1 0 0 0 0 0 0 0 0 0 0 0 1 2 3 2 1 0 0 0 0 0 0 0 0 0 0
0 0 0 0 0 0 0 0 0 0 0 0 0 0 0 0 0 0 0 1 2 2 1 0 0 0 0 0 0 0 0 0 0 0 1 2 2 1 0 0 0 0 0 0 0 0 0 0 0
0 0 0 0 0 0 0 0 0 0 0 0 0 0 0 0 0 0 0 1 2 3 1 0 0 0 0 0 0 0 0 0 0 0 0 1 1 1 0 0 0 0 0 0 0 0 0 0 0
0 0 0 0 0 0 0 0 0 0 0 0 0 0 0 0 0 0 0 1 2 2 2 1 0 0 0 0 0 0 0 0 0 0 0 0 1 0 0 0 0 0 0 0 0 0 0 0 0
0 0 0 0 0 0 0 0 0 0 0 0 0 0 0 0 0 0 0 0 1 2 2 2 1 0 0 0 0 0 0 0 0 0 0 1 1 1 0 0 0 0 0 0 0 0 0 0 0
Wind_Speed
13 10 6 3 3 4 7 5 3 1 3 5 6 5 6 6 5 5 3 5 5 5 6 7 8 9 10 9 9 8 8 8 8 8 8 7 7 8 8 8 8 8 8 9 9 9 10 10 10
10 6 4 3 4 5 5 4 1 3 5 4 4 4 5 6 7 6 3 4 4 5 6 7 8 9 9 9 9 8 8 8 8 9 8 8 7 7 7 7 7 7 8 9 9 9 9 9 9
9 6 3 3 4 5 2 2 4 4 4 3 3 5 5 5 5 4 3 3 4 5 6 8 9 9 9 9 8 8 8 8 9 9 9 8 8 8 8 7 7 7 7 8 9 8 9 8 8
4 3 4 4 6 4 2 4 3 3 3 3 3 5 5 6 4 4 4 3 5 5 6 7 8 9 9 9 9 8 8 8 9 9 9 9 9 8 8 8 8 7 7 8 8 8 8 8 8
3 3 4 5 7 3 2 3 2 1 2 2 2 3 5 5 7 6 4 4 5 5 6 6 8 8 9 9 9 8 8 8 8 8 9 9 9 9 9 9 8 7 7 7 7 7 7 7 7
3 3 4 6 6 2 1 2 2 1 1 2 2 2 5 5 5 4 4 4 4 5 5 6 7 8 8 8 8 8 8 8 7 7 8 8 9 8 9 9 9 8 8 7 6 7 7 7 6
3 3 5 6 4 2 0 1 1 1 1 2 2 3 5 4 4 4 4 3 4 5 5 4 4 5 7 7 7 8 7 7 7 7 7 8 8 8 8 8 9 9 8 7 7 6 6 5 5
3 3 4 5 4 2 2 2 2 3 2 4 4 2 3 2 3 4 4 4 4 5 4 4 3 4 3 4 6 7 6 6 7 6 6 7 7 7 7 7 7 8 8 7 7 6 5 6 5
3 3 3 4 3 1 3 2 2 3 3 3 4 5 5 6 5 4 4 4 3 4 4 3 3 3 3 3 4 5 5 5 5 4 4 4 2 3 4 5 6 6 6 7 7 6 5 5 5
1 2 4 3 3 2 3 2 1 1 1 1 2 4 6 5 4 4 3 3 3 3 3 3 3 3 2 2 2 2 2 2 2 2 2 1 1 2 3 4 4 4 4 5 6 6 5 4 2
1 2 2 3 5 3 2 1 1 1 1 0 1 3 5 4 4 3 3 3 2 2 3 3 3 2 2 1 1 1 1 1 1 1 1 1 1 1 1 1 1 1 2 2 3 3 2 1 2
3 2 2 3 4 3 2 1 1 1 1 2 2 4 5 4 4 3 2 2 2 2 2 2 3 2 2 1 1 1 1 1 1 1 1 1 1 1 1 1 1 1 1 1 1 1 2 2 2
4 2 1 1 2 2 2 1 1 3 1 1 3 3 4 3 3 2 2 2 2 2 2 2 2 2 2 1 1 1 1 1 1 1 1 2 1 1 1 1 1 1 1 1 1 1 2 2 2
1 0 1 2 2 2 1 3 2 4 2 1 2 2 3 3 3 3 2 2 2 2 2 2 2 2 2 2 1 1 1 1 1 1 1 1 1 1 1 1 1 1 1 1 1 1 1 1 1
1 2 3 4 3 2 1 4 5 4 3 3 2 2 2 2 2 2 2 2 2 2 3 2 2 2 2 2 1 1 1 1 1 1 1 1 1 1 1 0 0 1 1 1 1 1 1 1 1
4 4 3 3 3 2 2 6 3 4 5 4 4 3 3 2 2 2 2 2 2 2 3 2 2 3 2 2 2 1 1 1 1 1 1 1 1 1 0 0 0 0 0 0 1 1 1 1 1
4 4 4 3 3 3 4 5 2 3 5 4 4 4 3 3 3 3 2 3 3 3 3 3 2 2 2 2 2 2 1 2 1 1 1 1 1 1 1 0 0 1 0 0 1 1 0 1 1
2 4 4 4 2 3 5 6 4 4 5 5 5 4 4 4 3 3 3 3 3 3 3 3 2 2 2 2 2 1 2 1 1 1 1 1 1 2 1 0 0 0 0 0 0 0 1 0 1
5 5 6 4 1 3 6 8 7 5 5 6 5 5 5 4 4 4 4 4 4 3 3 3 3 2 2 1 1 1 1 1 1 1 1 1 2 1 1 1 1 0 0 0 0 0 0 0 1
5 6 6 4 1 3 6 9 8 6 7 7 6 6 5 4 4 5 4 4 4 4 3 3 3 2 2 1 1 1 1 1 1 1 1 1 1 1 1 1 0 0 0 0 0 0 0 0 0
5 5 5 5 5 5 6 7 8 6 7 6 6 5 5 6 6 5 5 4 4 4 4 3 3 2 1 1 1 1 1 1 1 1 0 0 1 1 1 1 0 1 0 1 1 1 1 1 1
6 3 4 4 4 4 3 5 6 5 6 7 7 6 6 5 5 5 6 6 5 4 3 3 3 3 2 1 1 2 1 1 1 1 0 0 0 0 0 0 0 0 0 1 1 1 1 1 1
2 3 4 4 5 6 5 5 6 5 5 7 7 6 5 6 6 6 6 6 5 5 4 3 3 3 2 2 2 2 1 1 1 1 1 0 0 0 0 0 0 0 1 1 1 1 1 1 2
1 3 4 3 3 6 6 6 7 4 6 5 6 6 5 5 5 5 5 5 4 4 4 3 3 3 2 2 1 2 2 1 2 1 1 1 1 0 0 0 1 1 1 1 1 2 2 2 2
2 1 1 2 4 6 3 5 7 3 2 4 5 5 5 5 5 5 5 5 4 5 4 4 4 3 2 2 2 2 1 2 2 2 2 2 1 1 1 1 1 1 1 1 1 1 2 2 2
4 3 3 4 4 3 2 7 5 2 2 1 2 3 4 4 4 4 4 5 4 4 4 4 4 3 3 2 2 1 1 1 1 1 1 2 1 2 1 1 1 1 1 1 1 1 2 1 2
3 4 3 2 2 4 6 5 3 2 2 2 2 2 3 4 4 4 4 4 4 4 4 4 4 3 3 3 2 2 2 1 1 1 1 1 1 1 1 1 1 1 1 1 1 1 2 2 2
3 2 1 3 3 5 6 6 4 4 4 4 3 4 3 3 4 4 4 3 4 4 3 3 4 3 3 2 2 2 1 1 1 1 1 1 1 1 1 1 1 1 1 1 1 2 2 1 2
4 4 4 3 4 4 5 5 1 2 3 4 5 4 3 3 4 3 3 3 3 3 3 3 3 3 2 2 2 1 1 1 1 1 1 1 1 1 1 2 1 1 2 2 2 2 2 2 2
4 6 6 4 5 5 5 7 1 2 1 2 2 2 3 3 3 3 3 3 3 3 3 3 3 2 2 2 1 1 1 1 1 1 1 1 1 1 1 2 2 2 2 2 2 2 2 3 3
Wind_Direction
300 280 268 259 240 233 242 245 262 44 69 47 29 35 57 37 38 96 101 50 61 94 110 108 98 100 96 94 92 90 89 85 85 83 78 75 74 71 68 63 57 56 60 61 62 63 62 60 60
296 293 270 242 244 237 241 229 246 59 69 63 48 44 62 64 60 91 83 48 62 95 107 104 91 93 94 93 92 89 89 86 85 81 77 75 73 70 66 64 58 58 62 66 64 65 64 60 58
279 269 258 234 237 249 280 45 66 74 71 64 71 41 46 59 70 74 65 73 79 91 101 100 93 94 92 88 89 91 88 85 85 81 76 76 74 68 61 58 57 57 64 67 68 67 66 61 57
277 240 239 242 245 259 351 24 46 82 75 47 85 91 79 49 54 71 83 81 90 91 94 103 96 95 92 88 85 84 87 88 86 83 78 73 71 66 60 54 54 56 63 67 68 68 67 63 56
245 249 234 236 247 266 18 11 16 66 125 108 93 97 95 75 74 87 85 78 88 90 88 103 97 95 92 89 88 85 83 88 86 84 81 74 69 64 60 53 50 51 58 66 68 69 66 60 55
252 243 239 239 240 240 352 5 352 326 56 74 83 106 100 88 84 90 87 80 87 92 93 101 91 92 90 88 86 84 81 81 84 83 81 77 71 66 61 56 52 49 52 58 65 68 65 60 52
268 256 251 256 253 232 343 19 355 329 27 35 20 85 117 87 76 95 93 88 84 87 87 94 94 86 84 86 84 81 79 77 77 82 82 77 74 68 64 58 53 48 49 54 58 62 61 60 49
291 282 261 263 267 274 34 69 23 358 37 34 23 82 111 103 99 105 97 83 78 77 81 86 91 93 91 87 85 84 80 78 75 75 77 76 74 70 65 58 54 50 47 50 54 56 62 57 47
280 251 260 271 282 314 65 53 24 27 54 47 29 43 81 106 109 104 100 87 75 73 69 74 79 81 85 97 99 98 91 87 82 71 73 80 82 81 72 64 59 53 48 49 49 47 47 46 44
253 239 256 323 341 14 49 31 5 73 77 101 66 67 93 110 117 115 112 109 93 79 74 69 77 78 84 95 105 116 116 108 89 67 65 71 63 71 75 64 59 52 50 50 46 36 37 33 31
234 247 315 343 355 3 27 3 346 250 277 323 143 138 129 128 132 136 134 126 115 90 69 60 66 78 85 89 100 91 91 95 82 63 55 63 63 75 79 83 64 44 51 43 36 37 34 34 35
249 292 341 333 339 356 353 336 317 297 282 36 76 115 136 145 153 156 147 130 115 106 92 68 56 56 67 78 90 90 87 86 86 56 45 49 47 40 40 47 37 42 50 52 52 40 24 24 31
235 256 296 315 3 0 2 310 288 277 291 62 96 122 138 148 153 146 125 116 117 118 105 83 70 57 55 68 76 78 82 87 85 75 43 42 51 52 44 40 29 29 37 55 52 41 28 24 11
293 285 267 256 253 256 247 273 248 245 195 155 143 150 154 150 147 140 131 133 140 138 120 100 88 77 64 65 72 81 84 90 84 69 59 51 43 48 59 44 25 22 28 33 63 58 42 32 18
229 238 249 233 224 212 224 271 231 213 183 189 186 177 155 143 141 153 154 149 140 134 123 115 114 97 89 75 63 71 79 88 89 78 56 48 49 36 57 70 31 7 6 10 25 41 37 27 24
232 235 238 202 201 194 222 261 227 185 190 200 205 195 171 165 162 161 153 139 130 123 126 115 98 94 81 78 72 58 55 71 82 75 67 47 36 31 43 107 21 342 12 34 43 34 34 5 2
216 241 247 219 195 182 211 254 226 191 204 210 206 202 186 181 178 168 150 145 141 133 120 108 98 95 86 83 84 75 58 59 67 73 62 46 28 18 13 325 344 354 28 36 34 21 31 1 350
250 259 267 259 186 208 233 250 243 218 215 221 212 206 195 194 188 162 143 134 130 124 121 114 104 88 81 81 81 70 60 52 52 70 78 72 45 23 10 343 322 348 36 41 31 24 11 338 317
305 286 280 289 278 238 246 257 250 231 230 232 219 206 205 197 174 153 144 136 134 136 135 135 125 114 110 109 112 108 91 65 54 53 67 70 57 31 30 348 308 330 296 20 34 99 37 341 6
274 280 281 298 325 277 268 266 260 235 222 225 224 210 201 189 177 160 151 146 150 153 151 147 140 134 132 128 141 146 141 152 132 81 58 57 58 32 25 27 340 325 283 261 243 228 264 249 71
266 268 278 289 302 261 271 270 239 227 216 213 221 215 202 194 190 175 168 167 164 167 164 159 148 141 137 126 118 89 78 75 63 70 85 58 59 44 27 28 0 315 265 232 226 224 247 231 244
262 282 290 285 285 268 228 277 248 218 210 208 213 214 206 195 190 184 176 176 172 166 157 154 153 153 154 152 153 163 161 167 213 197 182 114 104 108 30 24 12 285 273 247 236 246 251 218 232
270 304 283 270 269 280 244 252 260 197 222 212 207 208 204 189 187 184 177 175 166 155 153 152 153 157 156 167 187 196 201 185 157 152 161 167 179 194 86 348 291 270 271 264 253 253 257 240 233
283 293 276 252 245 256 228 224 263 209 215 209 200 197 192 181 177 174 164 154 154 149 150 156 163 165 160 173 205 219 211 195 170 172 188 210 214 229 266 282 259 257 254 254 257 248 249 252 253
228 228 281 250 227 244 208 223 248 219 207 196 188 191 181 171 169 170 166 162 163 161 161 164 170 175 174 182 206 231 229 211 200 194 202 209 213 229 235 258 250 256 254 255 265 255 254 254 253
221 210 205 239 253 273 245 239 246 196 132 136 160 169 161 165 171 175 174 167 168 167 168 172 177 181 181 189 206 222 225 216 216 211 212 219 216 223 217 227 249 263 265 263 258 254 258 259 262
218 222 241 255 281 277 247 237 244 206 185 183 168 166 173 177 172 171 167 166 169 171 176 181 180 182 185 191 198 208 213 219 213 216 216 215 228 230 212 215 241 257 263 259 250 252 254 251 253
250 241 199 207 236 261 265 244 234 207 210 201 196 199 198 176 165 164 164 164 165 169 174 178 181 182 184 188 197 207 215 231 212 192 221 215 220 220 231 235 241 260 259 257 248 254 254 255 264
197 208 214 222 233 238 269 263 201 200 201 212 216 194 182 173 166 161 155 151 145 152 167 177 181 178 183 189 195 203 220 223 203 202 224 205 206 206 225 239 242 250 251 248 240 248 239 239 255
232 216 196 208 239 235 259 266 26 42 43 166 186 171 164 169 162 154 149 146 152 164 174 181 181 181 186 184 188 204 215 208 212 222 227 204 202 206 222 235 242 248 253 249 243 251 243 233 242